Location: NCO
(38.4404°N, 77.1340°W)
Time: 05:34:24
(UTC-04:00)

Envisat - Visible Passes

Search period start: 28 May 2018 00:00
Search period end: 07 June 2018 00:00
Orbit: 764 x 766 km, 98.2° (Epoch: 27 May)

Date Brightness Start Highest point End Pass type
(mag) Time Alt. Az. Time Alt. Az. Time Alt. Az.
29 May 5.5 21:37:11 10° SW 21:40:46 19° W 21:44:22 10° NW visible
30 May 4.2 20:59:00 10° S 21:03:49 44° W 21:08:39 10° NNW visible
31 May 6.1 22:06:26 10° W 22:06:37 10° W 22:06:49 10° W visible
01 Jun 5.1 21:25:26 10° SSW 21:29:31 24° W 21:33:39 10° NW visible
03 Jun 5.7 21:52:54 10° WSW 21:55:20 13° W 21:57:47 10° WNW visible
04 Jun 4.8 21:13:50 10° SSW 21:18:18 31° W 21:22:47 10° NW visible
06 Jun 5.5 21:40:45 10° SW 21:44:04 17° W 21:47:24 10° NW visible
